Terminal Aerodrome Forecast
Issued by NWS Columbia, SC

Home | Current Version | Previous Version | Text Only | Print | Product List | Glossary On
Versions: 1 2 3 4 5 6 7 8 9 10 11 12 13 14 15 16 17 18 19 20 21 22 23 24 25 26 27 28 29 30 31 32 33 34 35 36 37 38 39 40 41 42 43 44 45 46 47 48 49
000
FTAK31 PAJN 170259 AAB
TAFAGS
TAF AMD
PAGS 170259Z 1703/1724 VRB04KT P6SM -SHRA SCT015 OVC045
     FM170800 15006KT 6SM -SHRA BR SCT015 OVC025
     FM171200 15008KT 4SM -SHRA BR OVC015
     FM172000 14007KT P6SM -SHRA SCT015 OVC025
      AMD LTD TO CLD VIS AND WIND=

USA.gov is the U.S. government's official web portal to all federal, state and local government web resources and services.